When you browse on this site, cookies collect data to enhance your experience and personalize the content and advertising you see.
Visit our Privacy Policy to learn more. By continuing to use the site, you agree to this use of cookies and data.

Stündliche Wetter Bakans

Heute, 20 September, Sonntag

Zeit Temperatur Niederschläge Wind Luftdruck Luftfeuchtigkeit
00:00 +3°C° 0 mm 0 m/S 745 mmHg 85%
01:00 +2°C° 0 mm 0 m/S 745 mmHg 87%
02:00 +3°C° 0 mm 1 m/S 745 mmHg 89%
03:00 +1°C° 0 mm 0 m/S 745 mmHg 89%
04:00 +1°C° 0 mm 0 m/S 746 mmHg 89%
05:00 +1°C° 0 mm 0 m/S 746 mmHg 89%
06:00 +3°C° 0 mm 0 m/S 746 mmHg 81%
07:00 +5°C° 0 mm 0 m/S 747 mmHg 74%
08:00 +8°C° 0 mm 1 m/S 747 mmHg 67%
09:00 +9°C° 0 mm 1 m/S 747 mmHg 59%
10:00 +10°C° 0 mm 1 m/S 747 mmHg 52%
11:00 +10°C° 0 mm 2 m/S 748 mmHg 44%
12:00 +10°C° 0 mm 2 m/S 747 mmHg 44%
13:00 +10°C° 0 mm 2 m/S 747 mmHg 44%
14:00 +10°C° 0 mm 3 m/S 747 mmHg 44%
15:00 +10°C° 0.1 mm 3 m/S 747 mmHg 50%
16:00 +9°C° 0.1 mm 3 m/S 748 mmHg 56%
17:00 +8°C° 0.1 mm 3 m/S 748 mmHg 62%
18:00 +5°C° 0 mm 3 m/S 748 mmHg 65%
19:00 +4°C° 0 mm 3 m/S 749 mmHg 69%
20:00 +2°C° 0 mm 3 m/S 749 mmHg 72%
21:00 +2°C° 0 mm 3 m/S 749 mmHg 74%
22:00 +2°C° 0 mm 3 m/S 749 mmHg 75%
23:00 +2°C° 0 mm 3 m/S 749 mmHg 77%

Morgen, 21 September, Montag

Zeit Temperatur Niederschläge Wind Luftdruck Luftfeuchtigkeit
00:00 +2°C° 0 mm 3 m/S 749 mmHg 79%
01:00 +2°C° 0 mm 3 m/S 749 mmHg 81%
02:00 +2°C° 0 mm 3 m/S 750 mmHg 83%
03:00 +2°C° 0 mm 3 m/S 750 mmHg 86%
04:00 +2°C° 0 mm 3 m/S 750 mmHg 88%
05:00 +2°C° 0 mm 3 m/S 750 mmHg 91%
06:00 +3°C° 0 mm 3 m/S 750 mmHg 84%
07:00 +5°C° 0 mm 4 m/S 751 mmHg 77%
08:00 +7°C° 0 mm 4 m/S 751 mmHg 70%
09:00 +8°C° 0 mm 4 m/S 751 mmHg 64%
10:00 +10°C° 0 mm 5 m/S 751 mmHg 57%
11:00 +12°C° 0 mm 5 m/S 751 mmHg 50%
12:00 +12°C° 0 mm 5 m/S 751 mmHg 49%
13:00 +12°C° 0 mm 5 m/S 751 mmHg 47%
14:00 +13°C° 0 mm 5 m/S 750 mmHg 45%
15:00 +12°C° 0 mm 4 m/S 750 mmHg 50%
16:00 +10°C° 0 mm 4 m/S 750 mmHg 55%
17:00 +9°C° 0 mm 3 m/S 750 mmHg 60%
18:00 +8°C° 0 mm 3 m/S 750 mmHg 65%
19:00 +5°C° 0 mm 3 m/S 750 mmHg 71%
20:00 +3°C° 0 mm 3 m/S 751 mmHg 76%
21:00 +4°C° 0 mm 2 m/S 751 mmHg 78%
22:00 +4°C° 0 mm 2 m/S 750 mmHg 79%
23:00 +3°C° 0 mm 2 m/S 750 mmHg 81%

übermorgen, 22 September, Dienstag

Zeit Temperatur Niederschläge Wind Luftdruck Luftfeuchtigkeit
00:00 +3°C° 0 mm 2 m/S 750 mmHg 81%
01:00 +3°C° 0 mm 2 m/S 749 mmHg 81%
02:00 +3°C° 0 mm 2 m/S 749 mmHg 82%
03:00 +4°C° 0 mm 1 m/S 749 mmHg 82%
04:00 +4°C° 0 mm 1 m/S 749 mmHg 82%
05:00 +3°C° 0 mm 1 m/S 748 mmHg 82%
06:00 +5°C° 0 mm 1 m/S 748 mmHg 74%
07:00 +7°C° 0 mm 1 m/S 748 mmHg 67%
08:00 +9°C° 0 mm 1 m/S 748 mmHg 60%
09:00 +11°C° 0 mm 1 m/S 748 mmHg 54%
10:00 +12°C° 0 mm 2 m/S 748 mmHg 48%
11:00 +14°C° 0 mm 2 m/S 747 mmHg 43%
12:00 +14°C° 0 mm 2 m/S 746 mmHg 45%
13:00 +14°C° 0 mm 3 m/S 746 mmHg 48%
14:00 +14°C° 0 mm 3 m/S 745 mmHg 50%
15:00 +13°C° 0 mm 3 m/S 745 mmHg 57%
16:00 +12°C° 0 mm 3 m/S 744 mmHg 63%
17:00 +11°C° 0 mm 3 m/S 744 mmHg 69%
18:00 +10°C° 0.5 mm 3 m/S 743 mmHg 77%
19:00 +7°C° 0.5 mm 4 m/S 743 mmHg 86%
20:00 +6°C° 0.5 mm 4 m/S 742 mmHg 94%
21:00 +6°C° 2.1 mm 4 m/S 741 mmHg 95%
22:00 +7°C° 2.1 mm 5 m/S 740 mmHg 96%
23:00 +7°C° 2.1 mm 5 m/S 739 mmHg 98%

23 September, Mittwoch

Zeit Temperatur Niederschläge Wind Luftdruck Luftfeuchtigkeit
00:00 +8°C° 1.5 mm 6 m/S 737 mmHg 98%
01:00 +9°C° 1.5 mm 7 m/S 736 mmHg 98%
02:00 +10°C° 1.5 mm 7 m/S 734 mmHg 98%
03:00 +12°C° 1.3 mm 7 m/S 733 mmHg 98%
04:00 +15°C° 1.3 mm 6 m/S 732 mmHg 98%
05:00 +16°C° 1.3 mm 6 m/S 731 mmHg 98%
06:00 +17°C° 0.6 mm 6 m/S 730 mmHg 97%
07:00 +17°C° 0.6 mm 5 m/S 730 mmHg 97%
08:00 +19°C° 0.6 mm 5 m/S 729 mmHg 97%
09:00 +20°C° 0.4 mm 6 m/S 729 mmHg 90%
10:00 +21°C° 0.4 mm 7 m/S 729 mmHg 84%
11:00 +22°C° 0.4 mm 8 m/S 728 mmHg 77%
12:00 +22°C° 0.4 mm 8 m/S 728 mmHg 77%
13:00 +22°C° 0.4 mm 8 m/S 727 mmHg 78%
14:00 +21°C° 0.4 mm 8 m/S 726 mmHg 78%
15:00 +20°C° 0.2 mm 8 m/S 726 mmHg 84%
16:00 +18°C° 0.2 mm 7 m/S 725 mmHg 89%
17:00 +17°C° 0.2 mm 6 m/S 724 mmHg 95%
18:00 +17°C° 0.2 mm 6 m/S 723 mmHg 94%
19:00 +17°C° 0.2 mm 6 m/S 722 mmHg 94%
20:00 +16°C° 0.2 mm 7 m/S 722 mmHg 94%
21:00 +16°C° 0.3 mm 7 m/S 720 mmHg 94%
22:00 +15°C° 0.3 mm 7 m/S 719 mmHg 94%
23:00 +15°C° 0.3 mm 8 m/S 718 mmHg 94%

24 September, Donnerstag

Zeit Temperatur Niederschläge Wind Luftdruck Luftfeuchtigkeit
00:00 +15°C° 0.5 mm 8 m/S 718 mmHg 94%
01:00 +15°C° 0.5 mm 8 m/S 717 mmHg 94%
02:00 +15°C° 0.5 mm 8 m/S 716 mmHg 94%
03:00 +15°C° 0.6 mm 7 m/S 716 mmHg 95%
04:00 +14°C° 0.6 mm 6 m/S 716 mmHg 95%
05:00 +14°C° 0.6 mm 5 m/S 716 mmHg 96%
06:00 +14°C° 0.7 mm 7 m/S 716 mmHg 95%
07:00 +15°C° 0.7 mm 8 m/S 717 mmHg 94%
08:00 +15°C° 0.7 mm 9 m/S 718 mmHg 94%
09:00 +13°C° 0.3 mm 9 m/S 719 mmHg 93%
10:00 +13°C° 0.3 mm 10 m/S 721 mmHg 92%
11:00 +12°C° 0.3 mm 10 m/S 722 mmHg 91%
12:00 +13°C° 0 mm 10 m/S 724 mmHg 88%
13:00 +13°C° 0 mm 9 m/S 725 mmHg 85%
14:00 +13°C° 0 mm 9 m/S 727 mmHg 83%
15:00 +13°C° 0 mm 8 m/S 728 mmHg 83%
16:00 +13°C° 0 mm 6 m/S 729 mmHg 83%
17:00 +13°C° 0 mm 5 m/S 730 mmHg 83%
18:00 +12°C° 0 mm 5 m/S 731 mmHg 86%
19:00 +10°C° 0 mm 4 m/S 731 mmHg 90%
20:00 +8°C° 0 mm 4 m/S 732 mmHg 94%
21:00 +8°C° 0 mm 4 m/S 732 mmHg 94%
22:00 +8°C° 0 mm 3 m/S 732 mmHg 94%
23:00 +7°C° 0 mm 3 m/S 732 mmHg 94%

25 September, Freitag

Zeit Temperatur Niederschläge Wind Luftdruck Luftfeuchtigkeit
00:00 +7°C° 0 mm 3 m/S 732 mmHg 93%
01:00 +7°C° 0 mm 3 m/S 732 mmHg 93%
02:00 +7°C° 0 mm 3 m/S 732 mmHg 92%
03:00 +6°C° 0 mm 4 m/S 732 mmHg 93%
04:00 +6°C° 0 mm 4 m/S 732 mmHg 93%
05:00 +7°C° 0 mm 4 m/S 731 mmHg 94%
06:00 +8°C° 0.1 mm 5 m/S 731 mmHg 93%
07:00 +10°C° 0.1 mm 6 m/S 731 mmHg 91%
08:00 +11°C° 0.1 mm 7 m/S 731 mmHg 90%
09:00 +11°C° 0.3 mm 7 m/S 731 mmHg 87%
10:00 +10°C° 0.3 mm 8 m/S 731 mmHg 85%
11:00 +9°C° 0.3 mm 8 m/S 732 mmHg 82%
12:00 +8°C° 0 mm 9 m/S 732 mmHg 77%
13:00 +7°C° 0 mm 9 m/S 733 mmHg 72%
14:00 +7°C° 0 mm 10 m/S 733 mmHg 68%
15:00 +6°C° 0 mm 9 m/S 734 mmHg 70%
16:00 +5°C° 0 mm 8 m/S 735 mmHg 72%
17:00 +4°C° 0 mm 7 m/S 736 mmHg 73%
18:00 +4°C° 0 mm 7 m/S 737 mmHg 75%
19:00 +3°C° 0 mm 6 m/S 737 mmHg 76%
20:00 +3°C° 0 mm 5 m/S 738 mmHg 77%
21:00 +2°C° 0 mm 5 m/S 739 mmHg 79%
22:00 +3°C° 0 mm 4 m/S 740 mmHg 81%
23:00 +1°C° 0 mm 4 m/S 740 mmHg 83%
Mehr zeigen